User: anonymous   Login
Location: Unspecified
(0.0000°N, 0.0000°E)
Time: 07:03:18
(UTC+00:00)
Language:

PAYLOAD C - Orbit

View from above orbital plane
View from above orbital plane
View from above satellite
View from above satellite

Ground track
Ground track

The orbit data is extracted from the following two-line orbital elements,

1 27842U 03031C   18048.58183247 +.00000023 +00000-0 +29980-4 0  9996
2 27842 098.6838 057.6377 0008782 337.8649 022.2149 14.22148660759327
Epoch (UTC): 17 February 2018 13:57:50
Eccentricity: 0.0008782
inclination: 98.6838°
perigee height: 812 km
apogee height: 824 km
right ascension of ascending node: 57.6377°
argument of perigee: 337.8649°
revolutions per day: 14.22148660
mean anomaly at epoch: 22.2149°
orbit number at epoch: 75932

The dashed part of the orbit path shows where the satellite is in the earth's shadow,  

DLR